CAPE
0 0 0 0 0 0 0 0 0 0 0 0 0 0 0 0 0 2 0 0 0 0 2 0 0 0 0 108 312 685 1064 1920 2256 2261 1900 1810 1285 673 503 432 523 582 722 703
0 0 0 0 0 0 0 0 0 0 0 0 3 1 0 0 0 1 0 0 0 0 0 0 0 0 160 247 472 989 1389 1981 2251 2226 1854 1528 883 568 488 416 553 674 716 734
0 0 0 0 0 0 0 0 0 0 0 0 0 0 0 0 0 0 0 0 0 0 0 0 0 0 367 443 653 950 1097 1973 2104 1915 1538 1054 582 566 494 639 659 785 655 647
0 0 0 0 0 0 0 0 0 0 0 0 0 0 0 0 0 0 0 0 0 0 0 0 0 323 475 614 743 884 1471 1963 1746 1377 975 454 287 447 497 375 541 773 812 466
0 0 0 0 0 0 0 0 0 0 0 0 0 0 0 0 0 0 0 0 0 0 0 0 0 572 609 718 843 1059 1543 1543 1276 770 388 509 524 498 506 329 556 423 639 394
0 0 0 0 0 0 0 0 0 0 0 0 0 0 0 0 0 0 0 0 0 0 0 0 352 605 699 812 1026 1320 1219 1105 539 754 660 342 252 460 475 187 491 453 434 605
0 0 0 0 0 0 0 0 0 0 0 0 0 0 0 0 0 0 0 0 0 22 9 415 535 673 724 840 1046 1051 867 746 450 547 467 651 564 428 510 573 263 460 433 390
0 1 0 0 0 0 0 0 0 0 0 0 0 0 0 0 0 0 0 0 16 213 420 565 613 674 677 870 904 761 809 654 471 480 370 540 572 350 487 316 325 264 279 305
10 20 1 0 0 0 0 0 0 0 0 0 0 0 0 0 0 0 0 0 208 315 446 532 574 592 705 800 756 714 664 519 432 452 536 452 408 494 444 445 284 237 303 29
4 0 0 0 0 0 0 0 0 0 0 0 0 0 20 2 0 0 0 10 375 538 493 515 553 680 734 629 673 552 474 380 429 339 477 375 165 299 215 334 109 91 44 47
6 1 0 0 2 0 0 0 0 0 0 0 0 3 52 3 1 0 0 0 451 563 545 545 559 662 589 537 515 555 445 387 298 366 303 204 190 71 67 11 34 172 9 6
32 14 0 16 26 0 0 0 0 0 0 0 0 0 1 0 14 17 0 100 504 531 498 450 469 492 410 420 465 392 338 194 220 254 232 138 191 128 95 52 21 8 4 13
13 2 4 14 15 16 6 0 0 0 4 0 0 0 0 0 3 38 155 535 541 514 392 366 418 396 406 453 443 360 151 91 152 189 135 134 212 260 347 2 9 2 9 8
0 7 1 11 44 3 22 1 0 4 0 0 0 9 5 13 3 120 413 532 468 397 365 362 369 367 413 466 388 121 50 34 77 209 149 191 330 240 140 11 5 16 14 4
0 0 16 3 0 2 3 20 0 6 0 0 2 1 66 96 0 169 445 469 391 310 327 370 337 368 481 464 170 9 4 30 66 190 239 220 432 405 16 7 22 4 5 6
6 0 8 13 0 8 0 0 1 0 0 0 4 3 49 0 0 102 345 320 266 309 310 303 319 376 425 259 7 0 2 39 46 384 255 168 220 216 8 9 14 6 9 14
17 6 0 1 1 0 0 0 2 0 11 3 2 23 78 45 20 0 96 266 269 254 284 299 289 350 300 81 0 0 1 8 61 291 164 316 98 93 20 14 9 10 12 28
7 1 9 16 0 0 37 11 12 11 40 32 8 0 59 32 0 0 33 160 184 278 306 339 344 414 272 8 0 1 0 0 54 229 201 94 47 15 19 8 51 26 16 52
1 0 6 0 0 8 66 50 89 10 9 70 19 44 18 0 0 0 4 20 84 299 418 440 462 465 239 2 0 0 0 0 69 252 219 117 66 68 70 30 86 59 40 127
1 2 3 2 0 0 3 0 21 114 0 2 36 41 2 0 0 9 12 10 26 233 670 492 523 537 203 0 0 0 0 0 79 250 205 152 198 145 61 80 174 164 135 222
1 11 6 0 2 1 2 0 0 75 38 17 9 0 0 0 0 0 0 20 53 154 539 578 638 610 218 0 0 0 0 0 28 218 218 259 248 523 486 348 326 296 189 149
0 0 9 13 16 4 0 0 0 15 6 1 0 0 0 0 0 0 0 36 94 177 652 699 807 699 160 0 0 0 0 0 0 189 254 384 360 446 319 273 236 230 122 73
0 2 0 1 0 0 3 0 0 0 0 0 0 0 0 0 0 13 57 122 138 217 513 777 820 742 148 2 0 0 0 0 0 184 424 412 246 642 400 158 166 69 215 131
0 3 1 3 3 0 2 0 0 0 0 0 0 0 0 0 0 5 149 380 237 355 365 795 874 841 293 8 0 0 0 0 0 164 532 434 292 714 523 244 13 30 218 310
3 2 1 3 0 2 1 0 0 0 0 2 0 0 0 0 0 0 35 156 505 481 395 724 961 970 521 35 0 0 0 0 0 52 385 598 434 547 379 275 0 15 2 92
15 7 1 0 6 3 1 0 0 0 0 0 0 0 0 0 0 0 0 24 149 611 632 632 1050 1055 718 100 0 0 0 0 8 2 194 267 368 250 401 212 0 0 0 0
CIN
0 0 0 0 0 0 0 0 0 0 0 0 -0 -1 0 0 0 -2 0 0 0 0 -4 0 0 0 0 -87 -70 -124 -136 -107 -142 -116 -109 -61 -96 -197 -170 -151 -87 -67 -39 -19
0 0 0 0 0 0 0 0 0 0 0 0 -0 -11 0 0 0 -1 0 0 0 0 0 0 0 0 -51 -101 -161 -184 -195 -150 -133 -87 -91 -81 -130 -182 -162 -127 -51 -62 -46 -4
0 0 0 0 0 0 0 0 0 0 0 0 -1 0 0 0 0 0 0 0 0 0 0 0 0 0 -100 -163 -264 -297 -290 -159 -116 -102 -96 -109 -152 -109 -114 -29 -21 -23 -37 -10
0 0 0 0 0 0 0 0 0 0 0 0 0 0 0 0 0 0 0 0 0 0 0 0 0 -52 -132 -251 -336 -348 -231 -149 -123 -136 -144 -202 -191 -81 -51 -53 -30 -17 -4 -6
0 0 0 0 0 0 0 0 0 0 0 0 0 0 0 0 0 0 0 0 0 0 0 0 0 -98 -199 -306 -333 -308 -200 -159 -161 -189 -228 -131 -73 -33 -19 -37 -23 -18 -18 -22
0 0 0 0 0 0 0 0 0 0 0 -0 0 0 0 0 0 0 0 0 0 0 0 0 -66 -155 -236 -321 -322 -226 -207 -191 -258 -143 -110 -138 -98 -24 -24 -65 -9 -19 -20 -6
0 0 0 0 0 0 0 0 0 0 0 0 0 0 0 0 0 0 0 0 0 -30 -31 -67 -115 -186 -295 -322 -271 -233 -230 -220 -221 -139 -120 -62 -61 -48 -19 -7 -9 -6 -12 -9
-1 -9 0 0 0 0 0 0 0 0 0 0 0 0 0 0 0 0 0 0 -25 -39 -45 -98 -169 -244 -293 -296 -264 -257 -201 -167 -156 -126 -114 -62 -32 -45 -11 -10 -14 -12 -7 -3
-4 -4 -1 0 0 0 0 0 0 0 0 0 0 0 0 0 0 0 0 0 -31 -42 -77 -154 -208 -259 -293 -279 -248 -223 -168 -143 -125 -101 -52 -51 -27 -14 -15 -24 -18 -11 -7 -30
-2 0 0 0 0 0 0 0 0 0 0 0 0 0 -5 -6 0 0 0 -23 -34 -55 -101 -179 -218 -238 -260 -256 -214 -180 -147 -133 -99 -103 -49 -50 -70 -9 -12 -10 -15 -9 -12 -38
-2 -1 0 0 -10 0 0 0 0 0 0 0 0 -4 -3 -10 -4 0 0 0 -37 -79 -108 -177 -207 -228 -234 -214 -177 -124 -116 -109 -117 -72 -66 -85 -49 -49 -40 -72 -43 -7 -3 -2
-12 -1 0 -32 -19 0 0 0 0 0 0 0 0 0 -48 0 -29 -6 0 -18 -52 -80 -133 -177 -193 -226 -215 -182 -140 -131 -114 -147 -117 -78 -83 -90 -47 -31 -38 -46 -62 -5 -0 -6
-13 -2 -3 -18 -27 -40 -14 0 0 0 -2 0 0 -1 -0 0 -15 -8 -8 -22 -60 -108 -147 -159 -185 -187 -170 -134 -111 -108 -158 -174 -116 -91 -102 -107 -30 -10 -10 -8 -4 -3 -4 -6
0 -0 -1 -1 -48 -59 -33 -4 0 -1 0 -1 0 -27 -2 -50 -34 -24 -8 -43 -72 -107 -105 -131 -163 -143 -124 -104 -86 -162 -202 -210 -131 -63 -99 -74 -13 -15 -14 -23 -4 -2 -1 -1
0 0 -1 -2 0 0 0 -69 0 -1 0 0 -12 -60 -1 -5 0 -60 -24 -39 -60 -82 -92 -124 -114 -92 -85 -67 -116 -266 -293 -197 -124 -64 -60 -45 -24 -10 -62 -8 -2 -1 -2 -4
0 -11 -16 -2 -1 -0 -1 0 -54 0 0 0 -27 -19 -25 0 0 -45 -44 -61 -57 -64 -71 -106 -89 -67 -59 -83 -229 0 -277 -177 -141 -23 -43 -63 -28 -29 -7 -6 -1 -1 -2 -8
-3 -4 0 -1 -6 -0 -0 -14 -56 0 -2 -15 -50 -9 -10 -46 -26 0 -39 -25 -24 -51 -64 -82 -75 -54 -56 -132 -21 0 -203 -216 -164 -28 -60 -16 -47 -23 -44 -14 -3 -7 -7 -18
-2 -2 -10 -2 -1 0 -98 -66 -32 -14 -9 -23 -78 -34 -49 -55 0 0 -107 -79 -19 -12 -46 -69 -54 -49 -59 -155 0 -324 -96 0 -199 -50 -43 -76 -81 -74 -32 -5 -29 -18 -13 -9
-6 -0 -0 0 0 -12 -100 -139 -43 -21 -89 -113 -83 -70 -104 -10 0 0 -176 -231 -177 -77 -21 -47 -53 -57 -88 -127 0 0 0 0 -182 -46 -33 -58 -71 -34 -14 -20 -8 -17 -29 -19
-3 -8 -1 -1 0 0 -138 0 -127 -46 -6 -85 -17 -52 -154 0 0 -212 -273 -250 -220 -160 -66 -55 -57 -71 -119 0 0 0 0 0 -158 -50 -55 -63 -33 -45 -44 -12 -4 -18 -19 -23
-3 -6 -0 -0 -1 0 -0 0 -42 -12 -70 -63 -54 0 0 0 0 0 0 -229 -223 -164 -84 -64 -63 -87 -137 0 0 0 0 0 -198 -68 -66 -48 -46 -4 -6 -6 -8 -7 -13 -22
0 -1 -19 -6 -2 -1 0 0 0 -2 -29 -1 -0 0 0 0 0 -104 -10 -221 -203 -155 -91 -61 -83 -92 -167 0 0 0 0 0 0 -85 -74 -51 -50 -24 -34 -22 -4 -3 -22 -27
0 0 0 -3 0 0 -5 -0 0 -0 0 -0 0 0 0 0 0 -168 -182 -195 -193 -151 -96 -51 -73 -117 -179 -149 0 0 0 0 0 -90 -57 -81 -94 -22 -53 -92 -66 -56 -21 -25
-0 0 0 0 0 -2 -1 0 -0 -0 -5 -0 0 0 0 0 0 -140 -132 -117 -166 -132 -127 -50 -68 -118 -165 -131 0 0 0 0 0 -121 -47 -91 -99 -22 -46 -97 -187 -134 -48 -37
-0 0 0 0 0 -0 -0 0 0 0 -1 -1 0 0 0 0 0 0 -198 -167 -86 -92 -104 -59 -56 -98 -152 -218 0 0 0 0 0 -215 -93 -59 -87 -47 -80 -97 -6 -150 -43 -46
-0 -0 0 0 -1 -0 -0 0 0 0 -0 -1 0 0 0 0 -0 -2 -6 -314 -282 -128 -108 -83 -37 -76 -132 -206 -52 0 0 0 -219 -104 -176 -150 -122 -145 -91 -134 0 0 0 0
Wind_Speed
35 37 41 41 34 32 34 35 46 49 45 41 43 42 56 49 44 30 27 25 26 33 39 41 31 28 38 19 16 13 10 7 5 4 4 4 5 6 7 8 10 11 15 18
38 45 43 36 33 38 54 54 52 57 51 47 45 46 48 43 36 36 27 25 34 41 43 40 35 36 20 15 17 14 11 5 4 2 1 2 2 5 6 7 9 11 14 17
42 46 38 42 44 41 34 34 48 55 48 52 47 50 47 47 37 30 28 39 32 28 22 23 28 24 12 14 13 13 7 4 2 1 0 2 1 3 3 7 10 11 14 18
46 46 51 44 49 41 49 31 48 52 45 43 35 51 34 23 20 19 27 22 22 21 21 17 13 9 8 10 10 5 2 1 0 1 1 1 2 5 7 8 12 12 12 15
55 44 45 53 53 39 59 42 45 47 45 44 42 36 41 35 18 34 22 17 16 14 12 13 13 3 5 6 6 3 2 2 2 3 3 2 3 4 9 11 13 14 14 16
54 46 49 50 54 51 46 44 46 47 45 44 26 24 44 24 39 34 24 16 24 20 9 9 3 3 3 3 3 3 3 5 5 5 5 4 4 11 10 11 13 14 15 13
48 49 52 49 49 48 51 41 44 41 40 31 24 28 35 34 26 23 18 14 22 17 3 5 4 1 2 3 4 6 7 6 7 6 6 6 9 11 12 13 13 13 14 11
48 51 48 48 53 46 49 46 40 38 31 39 43 32 38 16 12 10 17 16 8 9 5 2 1 2 4 6 8 8 8 8 8 7 7 8 9 10 10 11 15 13 12 13
38 47 41 45 50 47 47 52 48 44 38 41 37 27 16 16 10 12 8 8 5 7 4 2 2 5 7 9 10 10 10 10 8 8 7 9 9 12 13 14 15 14 13 14
31 45 43 42 43 54 52 43 49 44 43 37 33 30 19 10 16 1 4 5 5 6 6 7 6 9 9 11 10 11 11 9 9 8 8 9 10 12 13 14 14 13 13 13
33 35 46 44 49 49 48 50 53 43 42 39 36 28 10 14 15 3 2 7 8 7 6 7 9 9 11 12 10 11 10 10 10 10 9 10 11 12 12 13 13 12 12 12
31 31 42 46 38 45 50 48 46 47 40 43 40 35 12 9 9 11 1 8 5 7 8 8 10 12 13 12 12 11 11 11 11 10 10 11 11 12 12 13 14 13 13 14
24 29 37 39 40 41 48 52 51 51 36 37 40 32 14 9 5 7 4 7 3 8 9 10 11 11 12 12 12 12 12 12 12 11 12 11 11 12 12 13 14 16 16 15
25 30 36 35 33 27 38 51 54 49 47 41 37 13 8 5 6 6 6 5 6 7 9 10 10 11 12 12 13 13 13 13 13 12 12 12 12 12 13 13 14 16 15 11
23 32 37 43 40 36 40 42 55 47 44 45 36 13 9 3 2 4 2 2 4 7 8 9 10 12 12 13 14 13 14 14 13 12 13 12 13 14 14 13 16 15 16 16
24 27 33 37 41 38 41 44 45 51 40 43 36 26 2 5 3 1 3 4 5 4 7 9 12 12 13 14 14 14 15 15 17 14 14 14 15 16 16 15 12 15 15 10
28 24 24 34 27 31 41 45 45 52 42 44 29 24 11 1 0 3 3 6 6 2 5 9 12 12 12 13 14 16 16 16 17 16 16 18 17 17 17 17 15 13 11 9
30 27 24 20 22 28 30 32 39 42 39 42 26 12 6 5 3 2 7 10 9 2 4 8 11 12 12 14 14 16 16 18 19 19 20 19 19 20 20 18 18 16 11 9
29 27 24 26 21 24 24 16 26 40 28 17 12 9 7 7 6 5 11 14 15 14 2 8 11 11 12 16 14 18 17 19 20 20 20 21 20 21 20 18 16 15 15 14
20 27 26 27 32 18 19 19 17 21 29 16 16 12 13 15 17 14 16 18 20 19 19 8 10 11 13 17 16 19 18 20 20 20 21 22 21 21 19 19 19 20 19 14
23 25 30 27 28 17 16 18 23 32 31 16 12 13 13 15 15 18 20 20 21 20 18 7 10 12 14 17 19 20 19 21 22 22 21 21 21 21 22 21 20 22 22 21
19 22 26 29 25 28 19 13 16 12 15 12 13 14 15 16 17 18 20 20 21 20 18 5 9 11 13 16 20 22 20 22 22 22 22 20 20 21 21 23 23 22 21 22
18 19 21 20 19 15 17 9 8 8 2 7 13 15 16 16 18 19 20 20 21 21 21 2 8 10 12 14 19 23 21 23 22 21 20 18 20 19 21 23 24 24 25 25
15 16 18 20 14 10 12 8 9 10 11 11 11 11 13 15 15 18 18 18 19 20 23 17 8 9 12 14 16 21 20 25 21 21 20 20 22 20 21 23 24 24 23 24
14 14 19 20 15 16 13 14 13 13 14 14 13 13 13 14 15 17 16 17 16 19 19 24 7 9 10 14 15 18 20 24 21 19 21 21 23 23 22 24 23 23 20 21
15 15 18 20 21 20 19 16 15 16 16 15 16 15 14 14 15 16 16 16 19 20 20 24 9 7 9 14 16 18 19 24 21 20 21 22 23 27 24 26 25 13 20 19
Wind_Direction
253 250 244 230 233 238 259 259 267 271 273 276 279 283 264 284 291 291 285 283 289 291 293 294 301 304 301 306 306 300 293 285 249 266 256 249 251 291 299 311 317 327 332 333
251 244 225 256 244 257 256 260 266 262 265 271 281 283 282 282 289 294 297 296 300 298 296 296 297 299 299 296 302 299 292 273 247 282 251 244 279 306 303 311 319 327 335 334
251 246 255 253 254 255 245 251 264 256 267 264 281 282 283 276 268 288 293 297 297 295 287 294 292 291 295 299 303 300 296 257 236 292 273 318 309 339 339 340 339 336 340 341
258 256 252 251 251 249 256 249 260 252 267 275 281 282 286 287 270 268 296 297 298 299 299 295 282 277 290 303 310 319 357 108 329 36 148 10 350 347 345 341 346 354 355 353
253 255 252 249 249 249 230 259 260 260 268 274 276 285 244 293 248 297 305 289 278 272 280 277 287 258 291 307 328 23 49 51 75 92 57 45 36 8 360 353 355 353 359 359
256 258 254 252 250 251 254 256 258 260 266 270 233 272 247 236 289 300 310 313 322 314 293 306 253 128 302 341 29 37 61 96 84 55 73 87 19 358 359 356 358 1 359 7
258 256 252 252 250 247 245 248 252 256 257 240 273 276 237 243 303 306 318 327 328 335 302 82 111 120 30 48 63 81 100 74 92 77 62 38 4 352 355 359 4 7 15 36
261 255 247 246 245 244 240 241 243 243 257 267 267 275 243 256 256 242 321 331 13 4 21 54 325 38 80 88 91 91 88 90 96 72 68 26 17 21 13 16 8 21 32 41
268 256 260 245 244 242 240 238 243 251 258 264 271 284 252 299 301 315 329 344 38 15 13 6 66 88 96 96 100 93 95 98 87 70 52 37 31 19 14 10 10 27 37 67
271 263 258 256 240 241 239 238 237 241 247 255 265 279 296 304 321 313 340 89 80 67 79 91 92 99 93 97 92 94 97 89 81 69 55 45 33 20 19 11 27 35 57 56
272 261 254 257 242 232 233 237 232 243 243 250 258 273 297 298 326 43 70 116 106 90 93 100 103 94 94 93 89 94 92 87 83 85 60 52 39 33 29 35 39 53 35 30
272 264 253 248 250 234 235 234 234 234 236 244 251 263 301 311 334 345 141 129 105 91 103 105 104 101 101 94 97 98 90 92 93 85 65 56 53 40 29 53 68 60 70 76
276 253 255 247 240 236 235 232 234 235 241 241 244 260 286 290 300 298 28 89 102 103 109 107 106 105 102 97 100 97 98 92 95 81 77 60 58 29 31 63 79 90 91 94
261 251 245 240 230 249 240 229 229 229 230 235 239 267 269 253 298 296 93 103 117 113 112 104 101 102 101 103 104 100 104 94 100 95 75 65 49 41 58 71 92 95 91 79
268 249 243 235 240 245 247 237 225 227 224 229 234 259 236 226 330 312 85 175 139 122 111 99 98 103 103 104 105 101 103 99 97 75 67 54 55 60 68 73 100 88 93 98
257 250 240 231 228 244 243 234 227 222 219 226 239 236 150 96 348 5 204 175 171 132 106 97 102 104 106 105 106 105 106 100 110 76 74 69 80 86 82 87 60 81 88 23
249 235 239 225 236 244 234 222 223 215 218 220 238 228 190 178 49 338 254 208 219 184 110 101 105 109 106 104 108 109 104 100 111 93 82 98 81 78 84 85 77 59 49 23
243 236 219 223 225 218 215 220 221 213 213 216 224 223 152 174 220 293 265 259 256 220 111 100 104 107 105 107 105 112 103 113 116 110 104 92 96 94 99 82 90 79 40 348
242 223 221 221 213 215 210 217 213 205 202 221 225 220 218 257 257 285 269 264 260 265 304 103 104 107 105 114 108 117 111 117 121 114 104 108 97 105 96 80 74 75 83 87
238 216 204 202 199 204 209 245 247 180 202 239 228 247 241 250 247 259 267 265 256 258 255 108 107 106 111 117 114 121 118 125 124 115 113 113 110 100 94 94 94 103 94 47
217 211 204 210 216 228 265 254 231 213 214 234 238 247 251 252 266 264 258 261 251 253 249 107 113 114 115 119 123 129 121 131 129 120 110 109 102 93 93 91 92 110 98 85
230 216 209 204 215 234 269 244 198 225 228 247 248 253 255 263 268 266 261 257 248 249 250 115 114 115 118 123 130 138 126 134 132 125 117 104 99 101 97 108 117 96 82 90
226 231 223 231 208 226 243 240 242 261 328 284 255 259 264 268 268 260 257 256 251 250 245 191 120 115 120 126 135 143 131 140 133 126 114 104 113 100 99 111 126 116 124 114
270 278 223 220 245 250 268 258 284 286 289 293 275 273 272 265 267 257 259 259 257 251 245 247 135 123 123 131 135 143 132 147 135 128 120 116 126 111 109 119 141 128 140 134
293 286 234 222 252 239 292 266 280 279 282 279 278 279 276 272 268 260 262 266 265 254 250 240 162 135 125 130 136 142 137 149 137 129 131 127 134 137 125 145 155 156 162 160
301 289 244 235 243 237 253 259 272 262 269 276 269 275 282 285 276 268 268 272 269 263 252 241 237 153 135 134 138 145 144 151 139 136 136 140 143 162 147 159 171 231 192 190